Hourly Data Report for June 30, 2012

All times are specified in Local Standard Time (LST). Add 1 hour to adjust for Daylight Saving Time where and when it is observed.

SAINT JOHN A
NEW BRUNSWICK

45°18'58.000" N
65°53'24.000" W
108.80 m
8104901
71609
YSJ

Download Data

Hourly Data (June 2012)
Hourly Data Report for June 30, 2012
Temp Definition
°C
Dew Point Temp Definition
°C
Rel Hum Definition
%
Wind Dir Definition
10's deg

Wind Spd Definition
km/h
Visibility Definition
km
Stn Press Definition
kPa
Hmdx Definition


Wind Chill Definition


Weather Definition


TIME
00:00 Legend Double Dagger 14.7 14.7 100 20 17 0.4 98.98     Fog
01:00 Legend Double Dagger 14.7 14.7 100 0 7 0.4 98.82     Fog
02:00 Legend Double Dagger 14.8 14.8 100 20 12 0.2 98.82     Fog
03:00 Legend Double Dagger 14.5 14.5 100 19 15 0.4 98.80     Fog
04:00 Legend Double Dagger 14.4 14.4 100 20 11 0.4 98.80     Fog
05:00 Legend Double Dagger 14.0 14.0 100 22 12 0.6 98.84     Fog
06:00 Legend Double Dagger 14.2 14.2 100 21 10 0.2 98.90     Fog
07:00 Legend Double Dagger 14.4 14.4 100 19 15 0.2 98.90     Fog
08:00 Legend Double Dagger 14.3 14.3 100 19 17 0.4 98.96     Fog
09:00 Legend Double Dagger 15.0 15.0 100 19 12 0.4 99.02     LegendNANA
10:00 Legend Double Dagger 17.8 17.0 95 20 8 4.0 99.01     Fog
11:00 Legend Double Dagger 20.6 18.0 85 19 8 10.0 98.97 27   Mainly Clear
12:00 Legend Double Dagger 22.6 18.2 76 20 17 10.0 98.96 29   LegendNANA
13:00 Legend Double Dagger 24.9 19.2 70 18 12 10.0 98.92 32   LegendNANA
14:00 Legend Double Dagger 22.9 17.2 70 20 24 10.0 98.96 28   Mainly Clear
15:00 Legend Double Dagger 24.7 17.1 62 21 18 10.0 98.91 30   LegendNANA
16:00 Legend Double Dagger 25.6 16.1 55 21 26 10.0 98.90 30   LegendNANA
17:00 Legend Double Dagger 24.2 15.0 56 22 23 10.0 98.92 28   Mainly Clear
18:00 Legend Double Dagger 23.1 14.5 58 21 20 10.0 98.91 27   LegendNANA
19:00 Legend Double Dagger 19.6 14.3 71 20 17 10.0 98.97     LegendNANA
20:00 Legend Double Dagger 15.5 13.9 90 19 13 10.0 99.01     Mainly Clear
21:00 Legend Double Dagger 14.6 13.7 94 18 10 10.0 99.07     LegendNANA
22:00 Legend Double Dagger 14.3 13.8 97 12 8 10.0 99.11     LegendNANA
23:00 Legend Double Dagger 14.4 13.5 94   0 10.0 99.07     Mainly Clear

Notes on Data Quality.

Legend

  • E = Estimated
  • M = Missing
  • NA = Not Available
  • ‡ = Partner data that is not subject to review by the National Climate Archives
Date modified: